Ludington, MI

1:26 PM EDT on October 20, 2019 (GMT -0400)
Mason County

Weather History for KLDM - May, 2019

Change the Weather History Date:

Tuesday, May 14, 2019

  Actual Average Record
Temperature  
Mean Temperature 46 °F -  
Max Temperature 61 °F 66 °F 87 °F (1982)
Min Temperature 31 °F 41 °F 27 °F (1973)
Degree Days  
Heating Degree Days 19    
Moisture  
Dew Point 34 °F    
Average Humidity 62    
Maximum Humidity 99    
Minimum Humidity 36    
Precipitation  
Precipitation 0.00 in - - ()
Sea Level Pressure  
Sea Level Pressure 29.99 in    
Wind  
Wind Speed 3 mph (SW)    
Max Wind Speed 14 mph    
Max Gust Speed 20 mph    
Visibility 10 miles    
Events      
Averages and records for this station are not official NWS values.
T = Trace of Precipitation, MM = Missing Value Source: NWS Daily Summary

Daily Weather History Graph

Daily Weather History Graph

Search for Another Location

Airport or City:

Astronomy

May. 14, 2019 Rise Set
Actual Time 6:21 AM EDT 9:03 PM EDT
Civil Twilight 5:47 AM EDT 9:36 PM EDT
Nautical Twilight 5:06 AM EDT 10:19 PM EDT
Astronomical Twilight 4:17 AM EDT 11:07 PM EDT
Moon 4:11 PM EDT (5/14) 4:27 AM EDT (5/14)
Length of Visible Light 15h 49m
Length of Day
14h 42m
Waxing Gibbous, 79% of the Moon is Illuminated
May 14
Waxing Gibbous
May 18
Full
May 26
Last Quarter
Jun 3
New
Jun 10
First Quarter

Hourly Weather History & Observations

Time (EDT) Temp. Windchill Dew Point Humidity Pressure Visibility Wind Dir Wind Speed Gust Speed Precip Events Conditions
12:15 AM 37.8 °F - 34.7 °F 89% 29.97 in 10.0 mi Calm Calm - N/A   Clear
12:16 AM 37.9 °F - 34.9 °F 89% 29.97 in 10.0 mi Calm Calm - N/A   Clear
12:35 AM 37.6 °F - 34.3 °F 88% 29.97 in 10.0 mi Calm Calm - N/A   Clear
12:36 AM 37.6 °F - 34.5 °F 89% 29.97 in 10.0 mi Calm Calm - N/A   Clear
12:55 AM 37.0 °F - 34.3 °F 90% 29.97 in 10.0 mi Calm Calm - N/A   Clear
1:15 AM 37.0 °F - 34.9 °F 92% 29.97 in 10.0 mi Calm Calm - N/A   Clear
1:35 AM 35.8 °F - 33.8 °F 92% 29.97 in 10.0 mi Calm Calm - N/A   Clear
1:36 AM 35.6 °F - 33.8 °F 93% 29.97 in 10.0 mi Calm Calm - N/A   Clear
1:55 AM 36.0 °F - 34.2 °F 93% 29.97 in 10.0 mi Calm Calm - N/A   Clear
1:56 AM 36.0 °F - 34.2 °F 93% 29.97 in 10.0 mi Calm Calm - N/A   Clear
2:15 AM 36.1 °F - 34.0 °F 92% 29.97 in 10.0 mi Calm Calm - N/A   Clear
2:16 AM 36.0 °F - 34.0 °F 93% 29.97 in 10.0 mi Calm Calm - N/A   Clear
2:35 AM 35.2 °F - 33.1 °F 92% 29.96 in 10.0 mi Calm Calm - N/A   Clear
2:36 AM 34.9 °F - 32.7 °F 92% 29.96 in 10.0 mi Calm Calm - N/A   Clear
2:55 AM 34.9 °F - 33.8 °F 96% 29.96 in 10.0 mi Calm Calm - N/A   Clear
3:15 AM 34.7 °F - 33.4 °F 95% 29.97 in 10.0 mi Calm Calm - N/A   Clear
3:35 AM 34.0 °F - 32.9 °F 96% 29.97 in 10.0 mi Calm Calm - N/A   Clear
3:36 AM 33.6 °F - 32.4 °F 95% 29.97 in 10.0 mi Calm Calm - N/A   Clear
3:55 AM 33.8 °F - 32.9 °F 96% 29.97 in 10.0 mi Calm Calm - N/A   Clear
3:56 AM 33.8 °F - 32.7 °F 96% 29.97 in 10.0 mi Calm Calm - N/A   Clear
4:15 AM 33.6 °F - 32.9 °F 97% 29.97 in 10.0 mi Calm Calm - N/A   Clear
4:16 AM 33.6 °F - 32.9 °F 97% 29.97 in 10.0 mi Calm Calm - N/A   Clear
4:35 AM 31.8 °F - 31.1 °F 97% 29.98 in 10.0 mi Calm Calm - N/A   Clear
4:55 AM 32.0 °F - 31.5 °F 98% 29.98 in 10.0 mi Calm Calm - N/A   Clear
5:15 AM 32.4 °F - 32.0 °F 99% 29.99 in 10.0 mi Calm Calm - N/A   Clear
5:16 AM 32.5 °F - 32.0 °F 98% 29.99 in 10.0 mi Calm Calm - N/A   Clear
5:35 AM 32.7 °F - 32.2 °F 98% 29.99 in 10.0 mi Calm Calm - N/A   Clear
5:36 AM 32.7 °F - 32.2 °F 98% 29.99 in 10.0 mi Calm Calm - N/A   Clear
5:55 AM 32.2 °F - 32.0 °F 99% 30.00 in 10.0 mi Calm Calm - N/A   Clear
6:15 AM 31.5 °F - 30.7 °F 97% 30.00 in 4.0 mi Calm Calm - N/A   Clear
6:35 AM 31.6 °F - 30.9 °F 97% 30.00 in 10.0 mi Calm Calm - N/A   Clear
6:36 AM 31.6 °F - 31.1 °F 98% 30.00 in 10.0 mi Calm Calm - N/A   Clear
6:55 AM 31.8 °F - 31.1 °F 97% 30.00 in 10.0 mi Calm Calm - N/A   Clear
6:56 AM 31.8 °F - 30.9 °F 96% 30.00 in 10.0 mi Calm Calm - N/A   Clear
7:15 AM 32.9 °F 29.8 °F 32.2 °F 97% 30.01 in 10.0 mi ENE 3.5 mph - N/A   Clear
7:16 AM 32.9 °F - 32.2 °F 97% 30.01 in 10.0 mi Calm Calm - N/A   Clear
7:35 AM 36.0 °F - 35.1 °F 97% 30.02 in 10.0 mi Calm Calm - N/A   Clear
7:36 AM 36.1 °F - 35.2 °F 97% 30.02 in 10.0 mi Calm Calm - N/A   Clear
7:55 AM 41.0 °F - 38.3 °F 90% 30.02 in 10.0 mi Calm Calm - N/A   Clear
8:15 AM 45.0 °F - 37.6 °F 75% 30.02 in 10.0 mi Calm Calm - N/A   Clear
8:35 AM 47.7 °F - 37.2 °F 67% 30.02 in 10.0 mi Calm Calm - N/A   Clear
8:36 AM 47.7 °F - 37.0 °F 67% 30.02 in 10.0 mi Calm Calm - N/A   Clear
8:55 AM 50.2 °F - 36.0 °F 58% 30.02 in 10.0 mi SW 3.5 mph - N/A   Clear
8:56 AM 50.2 °F - 36.0 °F 58% 30.02 in 10.0 mi SW 3.5 mph - N/A   Clear
9:15 AM 51.8 °F - 35.2 °F 53% 30.02 in 10.0 mi Calm Calm - N/A   Clear
9:16 AM 52.0 °F - 35.1 °F 53% 30.02 in 10.0 mi Calm Calm - N/A   Clear
9:35 AM 53.6 °F - 34.9 °F 49% 30.02 in 10.0 mi WSW 3.5 mph - N/A   Clear
9:55 AM 54.1 °F - 34.7 °F 48% 30.02 in 10.0 mi WSW 6.9 mph - N/A   Clear
10:15 AM 55.0 °F - 34.9 °F 47% 30.03 in 10.0 mi West 5.8 mph - N/A   Clear
10:16 AM 55.2 °F - 34.9 °F 46% 30.03 in 10.0 mi West 5.8 mph - N/A   Clear
10:35 AM 55.6 °F - 34.9 °F 46% 30.03 in 10.0 mi WSW 6.9 mph - N/A   Clear
10:36 AM 55.6 °F - 34.9 °F 46% 30.03 in 10.0 mi WSW 6.9 mph - N/A   Clear
10:55 AM 54.5 °F - 34.9 °F 48% 30.03 in 10.0 mi WSW 8.1 mph - N/A   Clear
11:15 AM 55.6 °F - 34.9 °F 46% 30.03 in 10.0 mi WSW 6.9 mph - N/A   Clear
11:35 AM 56.8 °F - 35.4 °F 45% 30.03 in 10.0 mi WSW 8.1 mph - N/A   Clear
11:55 AM 57.6 °F - 36.1 °F 45% 30.03 in 10.0 mi West 8.1 mph - N/A   Clear
11:56 AM 57.6 °F - 36.0 °F 44% 30.03 in 10.0 mi West 6.9 mph - N/A   Clear
12:15 PM 57.7 °F - 36.0 °F 44% 30.03 in 10.0 mi WSW 8.1 mph - N/A   Clear
12:16 PM 57.9 °F - 36.0 °F 44% 30.03 in 10.0 mi WSW 6.9 mph - N/A   Clear
12:35 PM 59.2 °F - 36.9 °F 43% 30.02 in 10.0 mi WSW 8.1 mph - N/A   Clear
12:55 PM 60.1 °F - 37.9 °F 44% 30.02 in 10.0 mi SW 9.2 mph - N/A   Clear
1:15 PM 60.4 °F - 37.8 °F 43% 30.01 in 10.0 mi WSW 10.4 mph - N/A   Clear
1:16 PM 60.4 °F - 37.9 °F 43% 30.01 in 10.0 mi WSW 9.2 mph - N/A   Clear
1:35 PM 60.3 °F - 36.9 °F 42% 30.01 in 10.0 mi WSW 11.5 mph - N/A   Clear
1:55 PM 60.8 °F - 36.9 °F 41% 30.01 in 10.0 mi WSW 11.5 mph - N/A   Clear
2:15 PM 60.3 °F - 36.3 °F 41% 30.01 in 10.0 mi SW 13.8 mph - N/A   Clear
2:35 PM 59.2 °F - 34.9 °F 40% 30.01 in 10.0 mi SW 12.7 mph 19.6 mph N/A   Clear
2:36 PM 59.2 °F - 34.9 °F 40% 30.01 in 10.0 mi SW 11.5 mph 19.6 mph N/A   Clear
2:55 PM 58.3 °F - 34.9 °F 41% 30.01 in 10.0 mi SW 11.5 mph - N/A   Clear
2:56 PM 58.5 °F - 35.1 °F 42% 30.01 in 10.0 mi WSW 12.7 mph - N/A   Clear
3:15 PM 59.4 °F - 35.6 °F 41% 30.00 in 10.0 mi SW 12.7 mph 17.3 mph N/A   Clear
3:16 PM 59.5 °F - 35.8 °F 41% 30.00 in 10.0 mi SW 11.5 mph 17.3 mph N/A   Clear
3:35 PM 59.2 °F - 33.8 °F 38% 30.00 in 10.0 mi SW 12.7 mph 17.3 mph N/A   Clear
3:55 PM 59.9 °F - 33.6 °F 37% 29.99 in 10.0 mi SW 12.7 mph - N/A   Clear
4:15 PM 60.3 °F - 34.0 °F 37% 29.99 in 10.0 mi SW 12.7 mph 17.3 mph N/A   Clear
4:16 PM 60.1 °F - 33.8 °F 37% 29.99 in 10.0 mi SW 11.5 mph 17.3 mph N/A   Clear
4:35 PM 60.8 °F - 35.4 °F 39% 29.98 in 10.0 mi SW 11.5 mph - N/A   Clear
4:36 PM 61.0 °F - 35.6 °F 39% 29.98 in 10.0 mi SW 11.5 mph - N/A   Clear
4:55 PM 60.8 °F - 36.0 °F 40% 29.98 in 10.0 mi SW 12.7 mph 18.4 mph N/A   Clear
4:56 PM 61.0 °F - 36.1 °F 40% 29.98 in 10.0 mi SW 13.8 mph 18.4 mph N/A   Clear
5:15 PM 59.9 °F - 36.0 °F 41% 29.97 in 10.0 mi WSW 10.4 mph - N/A   Clear
5:35 PM 60.1 °F - 34.7 °F 39% 29.97 in 10.0 mi SW 11.5 mph - N/A   Clear
5:55 PM 61.0 °F - 35.1 °F 38% 29.96 in 10.0 mi SW 9.2 mph 16.1 mph N/A   Clear
6:15 PM 61.0 °F - 33.6 °F 36% 29.95 in 10.0 mi SW 11.5 mph 16.1 mph N/A   Clear
6:35 PM 59.9 °F - 34.9 °F 39% 29.96 in 10.0 mi SW 10.4 mph - N/A   Clear
6:36 PM 59.9 °F - 34.9 °F 39% 29.96 in 10.0 mi SW 10.4 mph - N/A   Clear
6:55 PM 58.5 °F - 34.9 °F 41% 29.96 in 10.0 mi SW 10.4 mph - N/A   Clear
6:56 PM 58.3 °F - 34.7 °F 41% 29.96 in 10.0 mi SW 9.2 mph - N/A   Clear
7:15 PM 58.6 °F - 34.3 °F 40% 29.95 in 10.0 mi SW 10.4 mph - N/A   Clear
7:35 PM 57.9 °F - 34.0 °F 41% 29.95 in 10.0 mi SW 10.4 mph - N/A   Clear
7:55 PM 58.1 °F - 32.0 °F 37% 29.95 in 10.0 mi SW 8.1 mph - N/A   Clear
7:56 PM 57.9 °F - 32.0 °F 37% 29.95 in 10.0 mi SW 8.1 mph - N/A   Clear
8:15 PM 57.0 °F - 31.3 °F 38% 29.95 in 10.0 mi SW 8.1 mph - N/A   Clear
8:16 PM 56.8 °F - 31.1 °F 38% 29.95 in 10.0 mi SW 8.1 mph - N/A   Clear
8:35 PM 56.5 °F - 30.7 °F 38% 29.95 in 10.0 mi SW 9.2 mph - N/A   Clear
8:55 PM 55.0 °F - 30.9 °F 40% 29.95 in 10.0 mi SSW 4.6 mph - N/A   Clear
9:15 PM 54.9 °F - 29.1 °F 37% 29.95 in 10.0 mi SSW 5.8 mph - N/A   Clear
9:35 PM 54.9 °F - 29.1 °F 37% 29.95 in 10.0 mi SSW 5.8 mph - N/A   Clear
9:36 PM 55.0 °F - 29.1 °F 37% 29.95 in 10.0 mi SSW 5.8 mph - N/A   Clear
9:55 PM 53.4 °F - 30.0 °F 41% 29.95 in 10.0 mi SW 3.5 mph - N/A   Clear
9:56 PM 53.4 °F - 30.2 °F 41% 29.95 in 10.0 mi SW 3.5 mph - N/A   Clear
10:15 PM 53.1 °F - 30.0 °F 41% 29.96 in 10.0 mi SSW 3.5 mph - N/A   Clear
10:16 PM 53.1 °F - 30.0 °F 41% 29.96 in 10.0 mi SSW 3.5 mph - N/A   Clear
10:35 PM 53.4 °F - 30.2 °F 41% 29.96 in 10.0 mi SSW 3.5 mph - N/A   Clear
10:55 PM 53.2 °F - 30.2 °F 41% 29.96 in 10.0 mi SSW 4.6 mph - N/A   Clear
11:15 PM 52.3 °F - 30.4 °F 43% 29.96 in 10.0 mi SW 4.6 mph - N/A   Clear
11:35 PM 51.8 °F - 30.6 °F 44% 29.96 in 10.0 mi SSW 6.9 mph - N/A   Clear
11:36 PM 52.0 °F - 30.6 °F 44% 29.96 in 10.0 mi SW 4.6 mph - N/A   Clear
11:55 PM 52.7 °F - 30.6 °F 43% 29.95 in 10.0 mi SW 4.6 mph - N/A   Clear
11:56 PM 52.5 °F - 30.6 °F 43% 29.95 in 10.0 mi SW 4.6 mph - N/A   Clear